Regional Weather Roundup
Issued by NWS Cleveland, OH

Home | Current Version | Previous Version | Graphics & Text | Print | Product List | Glossary On
Versions: 1 2 3 4 5 6 7 8 9 10 11 12 13 14 15 16 17 18 19 20 21 22 23 24 25 26 27 28 29 30 31 32 33 34 35 36 37 38 39 40 41 42 43 44 45 46 47 48 49 50
000
ASUS41 KCLE 242100
RWRCLE
OHIO REGIONAL WEATHER ROUNDUP
NATIONAL WEATHER SERVICE WILMINGTON, OH
500 PM EDT TUE APR 24 2018

NOTE: "FAIR" INDICATES FEW OR NO CLOUDS BELOW 12,000 FEET WITH NO
SIGNIFICANT WEATHER AND/OR OBSTRUCTIONS TO VISIBILITY.

OHZ001>008-015>018-024>027-034-035-043-044-242200-
   NORTHWEST OHIO

CITY           SKY/WX    TMP DP  RH WIND       PRES   REMARKS
DEFIANCE       CLOUDY    55  53  93 NE7       29.96F
FINDLAY        RAIN      55  50  83 E8        29.94F
TOLEDO EXPRESS LGT RAIN  53  53 100 NE10      29.98F FOG
TOLEDO EXEC    CLOUDY    51  49  92 NE9       29.99F
LIMA           LGT RAIN  54  52  93 SE9       29.93F
$$

OHZ009>014-019>023-028>033-038-089-242200-
   NORTHEAST OHIO

CITY           SKY/WX    TMP DP  RH WIND       PRES   REMARKS
CLE-HOPKINS    CLOUDY    57  52  83 E12       30.01F
CLE-LAKEFRONT  LGT RAIN  56  49  77 E12       29.99F
CUY CO. ARPT   LGT RAIN  55  52  88 SE14      30.01F
LORAIN-ELYRIA  LGT RAIN  55  47  74 SE8G17    29.98F
ASHTABULA      LGT RAIN  53  50  89 SE10G21   30.04F
AKRON-CANTON   LGT RAIN  54  50  86 E10       29.99F FOG
WOOSTER        LGT RAIN  54  52  94 SE13      29.98F
MANSFIELD      LGT RAIN  53  51  93 E14       29.95F
YOUNGSTOWN     LGT RAIN  52  50  93 E13       30.02F
$$

OHZ042-051>053-060>062-070>072-077>081-242200-
  SOUTHWEST OHIO

CITY           SKY/WX    TMP DP  RH WIND       PRES   REMARKS
CINC-COVINGTON CLOUDY    56  56 100 NE6       29.89S FOG
CINC-LUNKEN    LGT RAIN  56  56 100 NE3       29.90S FOG
HAMILTON       CLOUDY    56  54  93 N7        29.91S FOG
DAYTON         LGT RAIN  53  53 100 E6        29.92F FOG
WRIGHT-PAT AFB CLOUDY    54  52  94 E6        29.90F
DAYTON GENERAL CLOUDY    55  52  89 E8        29.90F FOG
WILMINGTON     CLOUDY    54  54 100 E7        29.89F FOG
$$

OHZ036-037-039>041-045>050-054>059-063>069-073>076-082>088-242200-
  CENTRAL AND SOUTHEAST OHIO

CITY           SKY/WX    TMP DP  RH WIND       PRES   REMARKS
COLUMBUS       DRIZZLE   56  52  86 E15G24    29.91F FOG
OSU AIRPORT    CLOUDY    54  52  93 E13       29.91F FOG
BOLTON FIELD   LGT RAIN  54  54 100 E8          N/A
RICKENBACK AFB NOT AVBL
NEWARK         CLOUDY    55  52  89 E13       29.92F
MARION         LGT RAIN  54  50  86 SE12      29.94F
LANCASTER      LGT RAIN  55  52  89 E12       29.91F
ZANESVILLE     LGT RAIN  54  51  90 E10       29.94F FOG
NEW PHILLY     LGT RAIN  54  52  93 E7        29.98F
$$




USA.gov is the U.S. government's official web portal to all federal, state and local government web resources and services.